This is the latest recevied weather packets stored in our database for station/object KC4GS-13. If no packets are shown the sender has not sent any weather packets the latest 10 day(s).
| Time | Temp. | Humidity | Pressure | Rain* | Wind** | Luminosity | Snow |
|---|---|---|---|---|---|---|---|
| 1787542165 | 27.22° C | 64% | 1016.3 hPa | 0 mm | - | 0 W/m² | - |
| 1787541861 | 27.22° C | 65% | 1016.1 hPa | 0 mm | - | 0 W/m² | - |
| 1787541557 | 27.22° C | 66% | 1016.3 hPa | 0 mm | - | 0 W/m² | - |
| 1787541254 | 26.67° C | 68% | 1016.1 hPa | 0 mm | - | 0 W/m² | - |
| 1787540949 | 26.11° C | 71% | 1016.2 hPa | 0 mm | - | 0 W/m² | - |
| 1787540646 | 26.11° C | 76% | 1016.3 hPa | 0 mm | - | 0 W/m² | - |
| 1787540343 | 26.11° C | 77% | 1016.2 hPa | 0 mm | - | 0 W/m² | - |
| 1787540039 | 26.11° C | 77% | 1016.1 hPa | 0 mm | - | 0 W/m² | - |
| 1787539735 | 26.11° C | 77% | 1016.2 hPa | 0 mm | - | 0 W/m² | - |
| 1787539435 | 26.67° C | 77% | 1016.2 hPa | 0 mm | - | 0 W/m² | - |
| 1787539129 | 26.67° C | 76% | 1016.3 hPa | 0 mm | - | 0 W/m² | - |
| 1787538826 | 26.67° C | 76% | 1016.2 hPa | 0 mm | - | 0 W/m² | - |
| 1787538517 | 26.67° C | 77% | 1016 hPa | 0 mm | - | 0 W/m² | - |
| 1787538212 | 26.67° C | 76% | 1016.1 hPa | 0 mm | - | 0 W/m² | - |
| 1787537908 | 26.67° C | 76% | 1015.7 hPa | 0 mm | - | 0 W/m² | - |
| 1787537604 | 26.67° C | 74% | 1015.8 hPa | 0 mm | - | 0 W/m² | - |
| 1787537299 | 26.67° C | 75% | 1015.7 hPa | 0 mm | - | 0 W/m² | - |
| 1787536994 | 26.67° C | 75% | 1015.9 hPa | 0 mm | - | 0 W/m² | - |
| 1787536692 | 27.22° C | 74% | 1015.8 hPa | 0 mm | - | 0 W/m² | - |
| 1787536390 | 27.22° C | 74% | 1015.8 hPa | 0 mm | - | 0 W/m² | - |
| 1787536083 | 27.22° C | 73% | 1015.9 hPa | 0 mm | - | 0 W/m² | - |
| 1787535779 | 27.78° C | 72% | 1015.7 hPa | 0 mm | - | 0 W/m² | - |
| 1787535475 | 27.78° C | 71% | 1015.4 hPa | 0 mm | - | 0 W/m² | - |
| 1787535170 | 28.33° C | 70% | 1015.5 hPa | 0 mm | - | 0 W/m² | - |
| 1787534870 | 28.89° C | 69% | 1015.2 hPa | 0 mm | - | 0 W/m² | - |
* Rain latest hour (hover to see other rain measurements)
** Current wind speed in m/s (hover to see current wind gust speed)